Find BSAT-3A

NORAD ID: 32019 Int'l Des: 2007-036 Owner: BSAT Country: J operational
HEOCIRCULAR

Aktuelle Ansicht

3D-Globus wird geladen...

Über BSAT-3A

Beschreibung wird geladen...

Nächste Überflüge

Passes for default location (London). Set your location on the main map for personalized predictions.

Höhenverlauf

Loading altitude history...

Zweizeiliger Elementsatz

1 32019U 07036B 26151.15817456 -.00000159 00000-0 00000+0 0 9998
2 32019 1.6162 88.6607 0002947 87.2402 67.7241 0.99141087 50307
Epoch: 31. Mai 2026 • Age: 8 hours

Aktueller Status

Höhe 36118.7 km
Geschwindigkeit 3.06 km/s
Subsatellitenpunkt -1.60°S, 63.35°W
Startdatum 14. Aug. 2007
Alter 18.7 years
Typ other

Technische Details

Klassifizierung Payload
Masse 1967.00 kg
Trockenmasse 930.00 kg
Gesamtmasse 1967.00 kg
Länge 3.80 m
Durchmesser 1.90 m
Spannweite 14.70 m
Form Box + 2 Pan
Hersteller LMCSS
Bus-Typ A2100A
Phasenstatus In Orbit
Besitzer/Staat BSAT/J

Most Searched